FW2617 Weather Reports


time (UTC)temp
F
wind
direction
speed
knots
gust
knots
rain 1hr
in
rain 24hr
in
rain mn
in
humidity
%
barometer
mb
20260902050925 84 157 1.7 4.3 0.00 0.00 0.00 64 1011.7
20260902050025 85 156 2.6 5.2 0.00 0.00 0.00 64 1011.7
20260902045404 85 155 2.6 7.0 0.00 0.00 0.00 63 1011.7
20260902044525 85 151 3.5 7.8 0.00 0.00 0.00 63 1011.7
20260902043625 85 148 3.5 8.7 0.00 0.00 0.00 62 1011.7
20260902042704 86 144 4.3 8.7 0.00 0.00 0.00 61 1011.6
20260902041825 86 145 2.6 10.4 0.00 0.00 0.00 60 1011.6
20260902040904 86 138 2.6 8.7 0.00 0.00 0.00 58 1011.5
20260902040004 87 137 2.6 7.0 0.00 0.00 0.00 57 1011.4
20260902035404 87 138 2.6 7.0 0.00 0.00 0.00 57 1011.3
20260902034504 88 139 0.9 3.5 0.00 0.00 0.00 56 1011.4
20260902033604 88 159 0.9 3.5 0.00 0.00 0.00 55 1011.1
20260902032704 88 152 0.0 3.5 0.00 0.00 0.00 55 1011.0
20260902031804 88 151 0.9 2.6 0.00 0.00 0.00 54 1011.0
20260902030904 88 151 0.0 2.6 0.00 0.00 0.00 54 1010.9
20260902030004 89 154 0.9 3.5 0.00 0.00 0.00 53 1010.8
20260902025404 89 151 0.9 3.5 0.00 0.00 0.00 53 1010.7
20260902024504 89 147 0.0 2.6 0.00 0.00 0.00 53 1010.6
20260902023625 89 138 0.9 2.6 0.00 0.00 0.00 52 1010.5
20260902022725 90 113 0.9 2.6 0.00 0.00 0.00 51 1010.3
20260902021804 90 92 0.0 2.6 0.00 0.00 0.00 51 1010.1
20260902020904 90 81 0.9 3.5 0.00 0.00 0.00 50 1010.1
20260902020004 91 98 0.0 3.5 0.00 0.00 0.00 50 1010.0
20260902015404 91 105 0.0 0.9 0.00 0.00 0.00 49 1009.9
20260902014504 92 0 0.0 0.0 0.00 0.00 0.00 48 1009.8
20260902013603 92 114 0.0 1.7 0.00 0.00 0.00 48 1009.7
20260902012704 92 112 0.0 1.7 0.00 0.00 0.00 48 1009.7
20260902011804 93 108 0.0 1.7 0.00 0.00 0.00 47 1009.6
20260902010925 93 102 0.9 2.6 0.00 0.00 0.00 47 1009.5
20260902010004 94 91 0.9 2.6 0.00 0.00 0.00 46 1009.4
20260902005404 94 85 0.9 2.6 0.00 0.00 0.00 45 1009.4
20260902004504 95 85 0.9 2.6 0.00 0.00 0.00 45 1009.4
20260902003604 95 87 0.9 3.5 0.00 0.00 0.00 44 1009.4
20260902002704 96 88 0.9 3.5 0.00 0.00 0.00 43 1009.4
20260902001804 96 79 0.9 4.3 0.00 0.00 0.00 42 1009.4
20260902000904 97 82 1.7 3.5 0.00 0.00 0.00 42 1009.6
20260902000025 97 75 1.7 5.2 0.00 0.00 0.00 41 1009.5
20260901235404 98 67 3.5 8.7 0.00 0.00 0.00 40 1009.5
20260901234504 99 70 2.6 9.6 0.00 0.00 0.00 39 1009.6
20260901233604 99 77 2.6 7.0 0.00 0.00 0.00 39 1009.6
20260901232704 100 80 1.7 5.2 0.00 0.00 0.00 39 1009.7
20260901231804 100 70 3.5 12.2 0.00 0.00 0.00 38 1009.6
20260901230904 101 69 2.6 7.0 0.00 0.00 0.00 38 1009.6
20260901230004 101 130 2.6 7.0 0.00 0.00 0.00 38 1009.7
20260901225404 101 125 1.7 5.2 0.00 0.00 0.00 38 1009.7
20260901224504 100 126 0.9 3.5 0.00 0.00 0.00 39 1009.7
20260901223604 98 84 0.9 3.5 0.00 0.00 0.00 41 1009.7
20260901222704 98 100 0.9 2.6 0.00 0.00 0.00 41 1009.8
20260901221804 98 139 0.9 4.3 0.00 0.00 0.00 41 1009.8
20260901220905 98 147 0.9 3.5 0.00 0.00 0.00 41 1009.9
20260901220004 98 120 0.9 5.2 0.00 0.00 0.00 40 1009.9
20260901215425 98 91 0.9 2.6 0.00 0.00 0.00 40 1010.0
20260901214525 98 114 1.7 3.5 0.00 0.00 0.00 40 1010.0
20260901213604 99 101 2.6 6.1 0.00 0.00 0.00 38 1010.1
20260901212725 101 93 2.6 8.7 0.00 0.00 0.00 37 1010.0
20260901211804 103 83 2.6 10.4 0.00 0.00 0.00 37 1010.1
20260901210904 101 131 1.7 5.2 0.00 0.00 0.00 38 1010.3
20260901210025 100 132 1.7 8.7 0.00 0.00 0.00 37 1010.4
20260901205404 102 107 1.7 6.1 0.00 0.00 0.00 36 1010.4
20260901204525 102 107 1.7 4.3 0.00 0.00 0.00 38 1010.4
20260901203604 103 105 1.7 5.2 0.00 0.00 0.00 37 1010.5
20260901202724 103 88 1.7 6.1 0.00 0.00 0.00 37 1010.6
20260901201804 102 130 1.7 6.1 0.00 0.00 0.00 37 1010.8
20260901200904 99 160 2.6 6.1 0.00 0.00 0.00 40 1010.9
20260901200004 100 150 3.5 7.8 0.00 0.00 0.00 37 1011.0
20260901195425 102 144 1.7 7.8 0.00 0.00 0.00 37 1011.1
20260901194504 101 151 1.7 3.5 0.00 0.00 0.00 39 1011.1
20260901193604 101 119 1.7 7.8 0.00 0.00 0.00 41 1011.3
20260901192704 98 160 1.7 7.8 0.00 0.00 0.00 42 1011.4
20260901191825 97 177 2.6 7.8 0.00 0.00 0.00 43 1011.5
20260901190904 98 171 2.6 7.0 0.00 0.00 0.00 43 1011.6
20260901190025 98 156 2.6 6.1 0.00 0.00 0.00 42 1011.7
20260901185404 100 127 1.7 7.8 0.00 0.00 0.00 41 1011.8
20260901184504 100 65 2.6 7.8 0.00 0.00 0.00 43 1011.9
20260901183604 98 81 1.7 4.3 0.00 0.00 0.00 43 1012.1
20260901182704 98 120 0.9 4.3 0.00 0.00 0.00 46 1012.3
20260901181803 97 138 1.7 3.5 0.00 0.00 0.00 43 1012.6
20260901180904 98 169 3.5 9.6 0.00 0.00 0.00 43 1012.8
20260901180004 99 176 2.6 9.6 0.00 0.00 0.00 41 1012.9
20260901175404 100 154 1.7 5.2 0.00 0.00 0.00 42 1012.9
20260901174525 98 128 2.6 7.8 0.00 0.00 0.00 44 1013.0
20260901173604 98 178 2.6 7.8 0.00 0.00 0.00 44 1013.1
20260901172704 98 102 1.7 4.3 0.00 0.00 0.00 46 1013.3
20260901171825 97 152 2.6 8.7 0.00 0.00 0.00 47 1013.3
20260901170904 96 74 0.9 3.5 0.00 0.00 0.00 47 1013.4
20260901170004 96 129 2.6 5.2 0.00 0.00 0.00 47 1013.5
20260901165425 96 136 2.6 6.1 0.00 0.00 0.00 47 1013.6
20260901164504 96 143 1.7 4.3 0.00 0.00 0.00 49 1013.7
20260901163625 94 190 2.6 7.0 0.00 0.00 0.00 51 1013.8
20260901162704 93 176 3.5 7.8 0.00 0.00 0.00 51 1013.9
20260901161804 92 199 3.5 7.8 0.00 0.00 0.00 53 1013.9
20260901160903 92 198 1.7 6.1 0.00 0.00 0.00 55 1013.9
20260901160004 91 160 2.6 8.7 0.00 0.00 0.00 56 1013.9
20260901155403 90 166 2.6 8.7 0.00 0.00 0.00 57 1013.9
20260901154504 89 195 2.6 5.2 0.00 0.00 0.00 58 1013.9
20260901153604 89 198 3.5 7.8 0.00 0.00 0.00 59 1013.9
20260901152704 88 177 2.6 7.8 0.00 0.00 0.00 60 1013.8
20260901151825 88 170 2.6 7.0 0.00 0.00 0.00 61 1013.8
20260901150904 87 173 2.6 7.0 0.00 0.00 0.00 63 1013.9
20260901150004 86 174 2.6 6.1 0.00 0.00 0.00 66 1013.9
20260901145425 85 194 1.7 5.2 0.00 0.00 0.00 68 1013.9
20260901144504 85 201 2.6 5.2 0.00 0.00 0.00 69 1014.0
20260901143625 84 186 2.6 5.2 0.00 0.00 0.00 69 1014.0
20260901142704 83 187 1.7 3.5 0.00 0.00 0.00 72 1014.0
20260901141824 83 183 1.7 5.2 0.00 0.00 0.00 72 1014.1
20260901140904 83 168 1.7 5.2 0.00 0.00 0.00 74 1014.2
20260901140004 82 174 2.6 5.2 0.00 0.00 0.00 75 1014.1
20260901135403 81 173 1.7 5.2 0.00 0.00 0.00 75 1014.1
20260901134504 80 162 0.9 3.5 0.00 0.00 0.00 77 1014.2
20260901133604 80 166 1.7 4.3 0.00 0.00 0.00 77 1014.2
20260901132704 79 166 1.7 5.2 0.00 0.00 0.00 77 1014.1
20260901131825 79 166 0.9 5.2 0.00 0.00 0.00 77 1014.0
20260901130904 78 161 0.9 3.5 0.00 0.00 0.00 77 1014.0
20260901130004 78 169 0.0 2.6 0.00 0.00 0.00 77 1014.0
20260901125404 78 164 0.0 3.5 0.00 0.00 0.00 77 1013.9
20260901124525 77 0 0.0 0.0 0.00 0.00 0.00 78 1013.8
20260901123604 77 148 0.0 1.7 0.00 0.00 0.00 78 1013.6
20260901122704 77 148 0.0 1.7 0.00 0.00 0.00 78 1013.6
20260901121804 77 0 0.0 0.0 0.00 0.00 0.00 77 1013.3
20260901120904 77 0 0.0 0.0 0.00 0.00 0.00 77 1013.2
20260901120004 77 159 0.0 3.5 0.00 0.00 0.00 77 1013.1
20260901115403 77 156 0.9 3.5 0.00 0.00 0.00 76 1013.1
20260901114504 78 164 1.7 4.3 0.00 0.00 0.00 76 1013.0
20260901113604 78 164 0.9 3.5 0.00 0.00 0.00 76 1013.1
20260901112704 78 0 0.0 0.0 0.00 0.00 0.00 76 1013.2
20260901111804 78 0 0.0 0.0 0.00 0.00 0.00 76 1013.2
20260901110925 78 0 0.0 0.0 0.00 0.00 0.00 75 1013.0
20260901110024 78 173 0.0 1.7 0.00 0.00 0.00 75 1012.9
20260901105404 78 173 0.0 1.7 0.00 0.00 0.00 75 1012.8
20260901104525 78 176 0.9 1.7 0.00 0.00 0.00 74 1012.8
20260901103625 78 165 0.0 1.7 0.00 0.00 0.00 74 1012.8
20260901102725 79 177 0.0 2.6 0.00 0.00 0.00 73 1012.9
20260901101804 79 0 0.0 0.0 0.00 0.00 0.00 72 1012.8
20260901100903 79 0 0.0 0.0 0.00 0.00 0.00 72 1012.8
20260901100004 79 0 0.0 0.0 0.00 0.00 0.00 71 1012.8
20260901095404 79 0 0.0 0.0 0.00 0.00 0.00 71 1012.8
20260901094524 79 0 0.0 0.0 0.00 0.00 0.00 71 1012.9
20260901093603 80 180 0.0 2.6 0.00 0.00 0.00 70 1013.0
20260901092704 80 191 0.9 2.6 0.00 0.00 0.00 70 1013.0
20260901091804 80 195 0.9 2.6 0.00 0.00 0.00 69 1013.1
20260901090904 80 182 0.9 3.5 0.00 0.00 0.00 68 1013.1
20260901090004 80 0 0.0 0.0 0.00 0.00 0.00 67 1013.0
20260901085404 80 0 0.0 0.0 0.00 0.00 0.00 67 1012.9
20260901084525 80 203 0.0 1.7 0.00 0.00 0.00 66 1012.9
20260901083604 80 190 0.9 1.7 0.00 0.00 0.00 66 1012.9
20260901082704 80 169 0.9 3.5 0.00 0.00 0.00 66 1013.0
20260901081804 80 167 0.9 4.3 0.00 0.00 0.00 65 1013.0
20260901080925 80 166 0.9 4.3 0.00 0.00 0.00 65 1012.9
20260901080004 80 173 0.0 2.6 0.00 0.00 0.00 63 1013.0
20260901075403 80 165 0.0 3.5 0.00 0.00 0.00 62 1013.0
20260901074503 81 0 0.0 0.0 0.00 0.00 0.00 61 1013.1
20260901073604 81 150 0.9 2.6 0.00 0.00 0.00 61 1012.9
20260901072704 81 161 0.9 3.5 0.00 0.00 0.00 61 1012.8
20260901071804 81 154 1.7 4.3 0.00 0.00 0.00 60 1012.8
20260901070904 82 181 1.7 5.2 0.00 0.00 0.00 59 1012.7
20260901070004 82 169 1.7 5.2 0.00 0.00 0.00 58 1012.7
20260901065404 82 166 2.6 5.2 0.00 0.00 0.00 58 1012.6
20260901064503 82 163 1.7 5.2 0.00 0.00 0.00 57 1012.6
20260901063603 82 149 0.9 2.6 0.00 0.00 0.00 56 1012.4
20260901062703 82 152 0.9 3.5 0.00 0.00 0.00 55 1012.3
20260901061804 82 152 1.7 4.3 0.00 0.00 0.00 54 1012.3
20260901060925 82 151 1.7 5.2 0.00 0.00 0.00 54 1012.2
20260901060024 83 149 0.9 3.5 0.00 0.00 0.00 53 1012.1
20260901055404 83 149 0.9 4.3 0.00 0.00 0.00 52 1011.9
20260901054504 83 151 0.9 3.5 0.00 0.00 0.00 52 1011.8
20260901053604 83 158 0.0 0.9 0.00 0.00 0.00 52 1011.8
20260901052704 83 145 0.9 3.5 0.00 0.00 0.00 52 1011.7
20260901051804 84 0 0.0 0.0 0.00 0.00 0.00 52 1011.5